DELTA 1 DEB, 7184

Orbit data source: Space-Track

DELTA 1 DEB, 7184 is space debris in SSO originally from a launch on Tue, 06 Nov 1973 UTC launched from the Air Force Western Test Range (AFWTR). Debris objects in space refer to the collection of defunct objects orbiting the Earth. Examples of debris include non-operational satellites, rocket bodies, and fragments generated from explosions, collisions, or faulty payload assembly.

Loading next visibility...
Identifier
7184, 1973-086EV
Orbit
SSO
Country
Flag of USUS
Related business
Manufacturer
Unknown
Mission
Spacecraft
Bus & Motor
Unknown
Mass
Unknown
Launch date (UTC)
1973-11-06 (53 years ago)
Launch vehicle
Unknown
Launch site
Air Force Western Test Range (AFWTR)
Object type
Payload
Rocket body
Debris
Shape & HBR
Unknown shape, 0.1 m
Radar Cross Section
Medium (>0.1 m² and <1 m²)

Expand to show TLE details & history
Last TLE update: 15 hours ago

TLE from 15 hours ago
0 DELTA 1 DEB
1 07184U 73086EV  26263.27544218  .00000543  00000-0  16838-2 0  9996
2 07184 102.3053 258.3567 0192206   1.1048  13.1208 13.05436539495749
Epoch: 2026-09-20T06:36Z
TLE epoch observation values (Epoch: 2026-09-20T06:36:38.204Z)
Latitude
14.36727°
Longitude
156.83904°
Altitude
1,100.282 km
Speed
7.371 km/s
True Right ascension
17h 00m 40s
True Declination
14° 17' 19"
Sunlit
Object was in daylight at epoch
Visualization orbit readout
Latitude
Unknown
Longitude
Unknown
Altitude
Unknown
Speed
Unknown
Apparent Right ascension
Unknown
Apparent Declination
Unknown
Sunlit
N/A
Visualization observer readout
Local Sidereal Time
15:02:16
Azimuth
Unknown
Elevation
Unknown
Doppler factor
Unknown
Orbital elements
Apogee altitude
1,384.765 km
Perigee altitude
1,091.977 km
Semi-major axis
7,616.508 km
Eccentricity
0.01922
Inclination
102.3053°
RAAN
258.3567°
Arg. of periapsis
1.1048°
True anomaly
13.63274°
Mean anomaly
13.1208°
Eccentric anomaly
13.37556°
Mean motion
3.2652 °/min
Orbital period
110.25 mins
BSTAR
0.0016838
Loading maneuver chart data...
Computing Atmospheric mass density...
Loading historical data...
Loading historical data...
Loading historical data...
Loading historical data...
Loading historical data...
Loading historical data...
Loading historical data...

Documentation

Showing up to 5 results
|